[TLELIST] Archives

 

[TLELIST] Current TLEs

November 28th 2023 PST

HST 1 20580U 90037B 23332.14483993 .00007972 00000-0 40559-3 0 9999 2 20580 28.4690 255.7743 0002623 358.0603 133.3186 15.15006931646593 ISS (ZARYA) 1 25544U 98067A 23332.24724459 .00023123 00000-0 41387-3 0 9997 2 25544 51.6425 235.9473 0000610 226.9335 278.5001 15.49867988427231 CXO 1 25867U 99040B 23331.89508405 .00000465 00000-0 00000-0 0 9996 2 25867 37.7596 175.9185 9034086 279.4962 359.7949 0.37810293 13803 ...Continue Reading

[TLELIST] Current TLEs

November 27th 2023 PST

HST 1 20580U 90037B 23330.94633067 .00007663 00000-0 38975-3 0 9990 2 20580 28.4695 263.7699 0002636 345.1717 76.5246 15.14984271646152 ISS (ZARYA) 1 25544U 98067A 23331.27976751 .00011842 00000-0 21649-3 0 9997 2 25544 51.6430 240.7391 0001085 183.4325 320.4634 15.49820584427086 CXO 1 25867U 99040B 23331.89508405 .00000465 00000-0 00000-0 0 9996 2 25867 37.7596 175.9185 9034086 279.4962 359.7949 0.37810293 13803 ...Continue Reading

[TLELIST] Current TLEs

November 27th 2023 PST

HST 1 20580U 90037B 23330.94633067 .00007663 00000-0 38975-3 0 9990 2 20580 28.4695 263.7699 0002636 345.1717 76.5246 15.14984271646152 ISS (ZARYA) 1 25544U 98067A 23331.27976751 .00011842 00000-0 21649-3 0 9997 2 25544 51.6430 240.7391 0001085 183.4325 320.4634 15.49820584427086 CXO 1 25867U 99040B 23331.89508405 .00000465 00000-0 00000-0 0 9996 2 25867 37.7596 175.9185 9034086 279.4962 359.7949 0.37810293 13803 ...Continue Reading

[TLELIST] Current TLEs

November 27th 2023 PST

HST 1 20580U 90037B 23330.94633067 .00007663 00000-0 38975-3 0 9990 2 20580 28.4695 263.7699 0002636 345.1717 76.5246 15.14984271646152 ISS (ZARYA) 1 25544U 98067A 23331.27976751 .00011842 00000-0 21649-3 0 9997 2 25544 51.6430 240.7391 0001085 183.4325 320.4634 15.49820584427086 CXO 1 25867U 99040B 23331.89508405 .00000465 00000-0 00000-0 0 9996 2 25867 37.7596 175.9185 9034086 279.4962 359.7949 0.37810293 13803 ...Continue Reading

[TLELIST] Current TLEs

November 27th 2023 PST

HST 1 20580U 90037B 23330.94633067 .00007663 00000-0 38975-3 0 9990 2 20580 28.4695 263.7699 0002636 345.1717 76.5246 15.14984271646152 ISS (ZARYA) 1 25544U 98067A 23331.27976751 .00011842 00000-0 21649-3 0 9997 2 25544 51.6430 240.7391 0001085 183.4325 320.4634 15.49820584427086 CXO 1 25867U 99040B 23331.89508405 .00000465 00000-0 00000-0 0 9996 2 25867 37.7596 175.9185 9034086 279.4962 359.7949 0.37810293 13803 ...Continue Reading

[TLELIST] Current TLEs

November 27th 2023 PST

HST 1 20580U 90037B 23330.94633067 .00007663 00000-0 38975-3 0 9990 2 20580 28.4695 263.7699 0002636 345.1717 76.5246 15.14984271646152 ISS (ZARYA) 1 25544U 98067A 23331.27976751 .00011842 00000-0 21649-3 0 9997 2 25544 51.6430 240.7391 0001085 183.4325 320.4634 15.49820584427086 CXO 1 25867U 99040B 23331.89508405 .00000465 00000-0 00000-0 0 9996 2 25867 37.7596 175.9185 9034086 279.4962 359.7949 0.37810293 13803 ...Continue Reading

[TLELIST] Current TLEs

November 27th 2023 PST

HST 1 20580U 90037B 23330.94633067 .00007663 00000-0 38975-3 0 9990 2 20580 28.4695 263.7699 0002636 345.1717 76.5246 15.14984271646152 ISS (ZARYA) 1 25544U 98067A 23331.27976751 .00011842 00000-0 21649-3 0 9997 2 25544 51.6430 240.7391 0001085 183.4325 320.4634 15.49820584427086 CXO 1 25867U 99040B 23331.89508405 .00000465 00000-0 00000-0 0 9996 2 25867 37.7596 175.9185 9034086 279.4962 359.7949 0.37810293 13803 ...Continue Reading

[TLELIST] Current TLEs

November 26th 2023 PST

HST 1 20580U 90037B 23330.16948733 .00012553 00000-0 64456-3 0 9990 2 20580 28.4696 268.9519 0002550 335.8135 160.6036 15.14977685646294 ISS (ZARYA) 1 25544U 98067A 23330.24612828 .00028195 00000-0 50451-3 0 9997 2 25544 51.6437 245.8600 0000539 252.8003 240.2967 15.49759421426920 CXO 1 25867U 99040B 23331.89508405 .00000465 00000-0 00000+0 0 9995 2 25867 37.7596 175.9185 9034086 279.4962 359.7949 0.37810293 24951 ...Continue Reading

[TLELIST] Current TLEs

November 25th 2023 PST

HST 1 20580U 90037B 23328.63048611 .00007732 00000-0 39384-3 0 9990 2 20580 28.4695 279.2188 0002533 319.1292 47.0883 15.14942599645800 ISS (ZARYA) 1 25544U 98067A 23329.27915755 .00050600 00000-0 89789-3 0 9995 2 25544 51.6431 250.6519 0000852 322.5156 172.2368 15.49715476426773 CXO 1 25867U 99040B 23329.25164999 .00000488 00000-0 00000-0 0 9994 2 25867 37.7275 176.3330 9033650 279.1471 359.9818 0.37812041 13790 ...Continue Reading

[TLELIST] Current TLEs

November 25th 2023 PST

HST 1 20580U 90037B 23328.63048611 .00007732 00000-0 39384-3 0 9990 2 20580 28.4695 279.2188 0002533 319.1292 47.0883 15.14942599645800 ISS (ZARYA) 1 25544U 98067A 23329.27915755 .00050600 00000-0 89789-3 0 9995 2 25544 51.6431 250.6519 0000852 322.5156 172.2368 15.49715476426773 CXO 1 25867U 99040B 23329.25164999 .00000488 00000-0 00000-0 0 9994 2 25867 37.7275 176.3330 9033650 279.1471 359.9818 0.37812041 13790 ...Continue Reading
  • This mailing list is a public mailing list - anyone may join or leave, at any time.
  • This mailing list is announce-only.

International Space Station (ISS) / Hubble Space Telescope (HST) / Chandra X-Ray Observatory Orbital Data via EMAIL

Privacy Policy:

Private list